Vorticity
4 5 4 16 0 6 1 2 3 5 12 11 11 10 9 9 0 15 16 6 7 6 5 0 1 2 7 11 14 10 9 7 6 6 7 6 8 9 7 6 10 2 -3 2
5 6 0 3 4 3 4 1 9 17 -3 9 7 6 5 6 7 12 10 8 8 11 2 2 -1 3 6 3 4 13 12 9 9 6 7 5 5 5 8 6 8 3 8 5
-0 16 6 5 3 4 4 7 10 7 5 4 16 21 23 15 22 14 21 14 10 9 7 3 -1 4 2 1 4 5 13 11 10 7 6 8 8 6 10 9 8 10 10 7
7 -7 12 12 2 9 -4 5 12 12 6 8 7 -3 11 10 13 9 22 17 15 11 10 6 -7 5 10 -3 -0 4 1 11 11 8 6 9 9 14 15 15 10 7 7 0
7 15 1 5 4 8 -8 4 5 3 5 5 18 14 16 2 8 11 19 28 20 16 12 10 9 5 0 10 0 3 2 1 7 8 10 10 12 19 22 14 10 6 7 1
-3 16 19 10 -1 7 3 6 1 3 9 23 9 2 32 12 3 1 9 26 18 24 15 16 10 10 9 -4 3 1 5 2 1 3 9 14 8 16 17 8 14 9 6 10
8 -7 7 24 9 12 6 4 12 12 7 12 -3 17 -5 5 8 16 7 10 17 19 21 15 17 7 13 7 -1 6 2 4 7 1 11 13 10 15 15 11 10 9 8 4
7 22 -0 11 1 3 6 2 -15 13 9 -10 1 13 -3 2 7 8 15 6 15 20 27 19 10 14 15 5 13 7 1 9 10 5 11 2 7 15 13 13 11 10 11 4
13 -12 47 1 1 3 10 -1 17 4 6 16 13 5 13 15 5 3 14 21 6 11 17 14 17 23 10 7 11 4 10 -5 1 13 8 1 1 0 7 18 12 11 10 7
-1 27 -2 15 4 8 3 26 6 6 10 10 12 10 7 -4 4 -4 4 16 11 15 15 15 13 16 13 3 8 11 14 9 3 4 8 5 -1 -0 1 5 20 12 10 10
-6 -2 49 3 20 -0 9 2 -2 -6 3 -9 9 11 17 -5 0 3 4 13 14 5 24 21 11 6 19 14 7 12 8 8 10 12 14 10 5 1 0 2 14 16 12 7
11 12 -2 21 10 18 1 11 12 1 16 7 2 1 23 6 5 10 4 16 13 6 15 23 23 1 2 6 3 3 1 3 3 3 5 10 11 7 4 4 11 19 10 12
10 34 21 7 7 14 17 6 3 4 4 6 -0 7 -21 -6 7 9 13 18 6 15 15 9 25 13 15 8 6 3 5 8 4 3 5 5 11 12 6 8 25 19 11 10
5 0 1 -5 10 21 6 6 13 10 6 5 5 3 3 7 6 4 10 21 3 12 15 22 16 13 11 16 10 10 9 7 7 7 6 4 13 10 10 27 25 18 6 15
11 4 9 7 9 11 5 18 9 5 8 -4 -1 -1 5 2 2 3 11 10 15 9 17 20 17 21 4 10 18 5 10 6 7 13 7 5 10 13 18 25 23 13 8 13
12 -5 15 13 13 8 14 10 5 18 12 5 2 5 5 7 11 2 8 4 0 17 18 10 23 15 8 9 1 15 7 21 7 15 5 10 14 14 17 16 17 8 12 11
16 5 7 18 29 21 11 11 8 6 6 11 26 15 4 4 3 0 -1 1 -7 -2 15 16 32 30 -14 12 2 5 4 9 17 13 7 13 18 21 20 9 14 10 6 11
9 10 3 16 21 11 20 26 21 8 5 6 10 -2 5 6 6 6 2 6 1 13 18 13 25 18 19 13 1 5 0 7 21 7 13 21 19 27 20 15 9 12 10 10
0 9 5 -1 5 -18 5 27 6 28 28 21 7 15 12 12 13 8 24 2 18 18 17 9 25 19 21 20 8 8 3 18 12 27 13 24 15 24 20 12 8 13 15 22
6 3 0 -2 10 4 20 11 8 16 11 12 18 24 14 3 8 7 -2 16 26 21 17 6 15 38 8 21 10 -4 5 6 -2 23 6 10 15 16 13 6 2 5 8 10
9 8 7 9 0 5 6 12 12 5 1 13 3 5 12 6 -2 5 3 7 28 20 11 6 20 33 20 17 4 2 11 21 11 -8 12 6 22 15 13 10 4 2 4 7
12 7 14 21 14 14 -3 22 8 -2 21 3 8 11 7 5 2 7 7 9 21 15 12 16 20 26 26 7 5 2 18 16 15 11 -3 4 6 8 11 11 5 5 3 6
6 -1 -3 -1 30 16 2 18 5 7 8 12 11 8 4 5 4 1 3 17 31 13 13 16 11 12 13 16 0 8 23 8 8 13 12 7 10 3 10 5 1 3 4 5
37 -3 7 8 18 8 8 7 6 11 7 8 8 9 6 3 -0 3 10 16 25 6 10 16 9 14 13 8 1 14 -2 5 7 10 15 14 10 10 6 6 6 6 9 6
17 13 10 7 8 7 9 11 4 2 1 8 11 6 13 11 9 4 4 9 15 32 14 5 14 8 6 6 4 -1 6 2 0 6 5 12 15 11 10 8 9 8 9 11
15 14 14 15 13 8 -8 8 15 6 8 9 7 10 12 9 9 6 2 5 4 17 15 30 10 20 13 9 4 6 6 17 1 8 7 3 9 15 13 13 7 12 11 13
Height
3195 3199 3199 3198 3200 3201 3202 3203 3203 3203 3203 3201 3201 3199 3199 3199 3195 3196 3196 3197 3197 3199 3200 3201 3202 3202 3204 3204 3206 3206 3207 3208 3209 3211 3212 3212 3214 3215 3216 3217 3218 3219 3221 3224
3195 3195 3197 3196 3199 3201 3201 3201 3201 3200 3199 3199 3198 3196 3194 3194 3193 3192 3193 3193 3193 3196 3197 3198 3200 3201 3202 3203 3204 3205 3205 3206 3207 3208 3209 3210 3211 3211 3213 3213 3214 3216 3218 3220
3191 3194 3194 3197 3198 3199 3200 3200 3199 3200 3198 3196 3194 3191 3190 3189 3188 3188 3187 3189 3190 3191 3193 3194 3197 3199 3201 3201 3202 3203 3203 3204 3205 3206 3207 3207 3207 3208 3209 3211 3211 3213 3215 3217
3189 3191 3192 3194 3196 3198 3197 3197 3198 3197 3198 3195 3194 3190 3187 3187 3186 3185 3184 3182 3184 3186 3188 3190 3192 3195 3198 3199 3200 3201 3202 3202 3203 3204 3204 3204 3204 3204 3206 3208 3209 3209 3211 3214
3185 3187 3190 3191 3194 3195 3196 3196 3197 3197 3196 3195 3192 3191 3183 3183 3184 3184 3182 3179 3180 3181 3183 3186 3187 3191 3195 3196 3197 3198 3200 3201 3201 3201 3201 3201 3201 3200 3201 3203 3205 3208 3210 3212
3183 3184 3187 3189 3191 3193 3195 3196 3196 3195 3194 3189 3189 3191 3180 3181 3183 3181 3180 3175 3174 3177 3179 3180 3183 3186 3188 3192 3194 3195 3197 3198 3199 3199 3199 3198 3198 3198 3199 3200 3203 3206 3208 3210
3179 3181 3183 3185 3188 3190 3192 3193 3187 3185 3183 3181 3187 3188 3182 3181 3181 3179 3177 3174 3172 3172 3173 3174 3175 3179 3183 3186 3190 3192 3194 3195 3197 3197 3197 3197 3196 3197 3197 3198 3200 3203 3206 3208
3173 3177 3179 3182 3184 3186 3189 3188 3184 3183 3179 3178 3183 3181 3178 3179 3179 3177 3175 3174 3172 3170 3169 3170 3172 3174 3178 3182 3185 3188 3191 3192 3193 3194 3195 3195 3195 3195 3196 3196 3197 3200 3203 3205
3168 3171 3174 3178 3182 3185 3186 3188 3188 3185 3182 3181 3177 3178 3177 3178 3178 3176 3175 3173 3170 3169 3168 3169 3169 3170 3174 3178 3181 3184 3187 3189 3190 3191 3191 3192 3193 3193 3194 3194 3195 3197 3200 3203
3166 3168 3170 3175 3179 3180 3181 3182 3184 3183 3181 3176 3171 3175 3174 3175 3176 3175 3174 3172 3170 3167 3167 3166 3168 3169 3171 3174 3177 3180 3182 3185 3186 3187 3188 3188 3190 3190 3191 3192 3192 3194 3196 3199
3163 3166 3166 3171 3171 3174 3178 3179 3181 3178 3176 3173 3169 3168 3171 3174 3174 3173 3172 3171 3169 3166 3164 3164 3165 3167 3169 3171 3173 3176 3178 3180 3182 3183 3184 3185 3186 3186 3187 3188 3189 3190 3192 3195
3158 3161 3161 3164 3167 3169 3171 3172 3174 3174 3174 3173 3174 3173 3171 3172 3172 3169 3167 3166 3165 3163 3161 3161 3162 3164 3166 3168 3170 3172 3175 3176 3178 3179 3180 3180 3181 3181 3183 3183 3185 3185 3188 3191
3154 3156 3157 3159 3163 3166 3166 3168 3168 3168 3169 3166 3169 3168 3168 3169 3169 3168 3166 3162 3161 3160 3158 3158 3158 3159 3162 3164 3167 3169 3171 3172 3173 3175 3176 3176 3176 3176 3177 3177 3178 3180 3185 3187
3151 3152 3152 3151 3155 3158 3161 3163 3165 3167 3164 3166 3165 3164 3168 3167 3167 3166 3163 3160 3159 3157 3156 3155 3156 3157 3159 3161 3163 3166 3167 3168 3170 3171 3171 3172 3172 3171 3171 3170 3172 3176 3180 3184
3147 3148 3149 3150 3152 3153 3155 3157 3161 3161 3163 3162 3160 3161 3163 3164 3164 3163 3161 3158 3157 3155 3154 3153 3153 3154 3155 3157 3160 3163 3164 3165 3166 3167 3167 3167 3167 3167 3166 3167 3169 3174 3177 3180
3143 3145 3146 3146 3147 3148 3149 3153 3154 3156 3158 3159 3160 3158 3161 3161 3161 3160 3160 3158 3155 3154 3152 3150 3148 3149 3152 3154 3156 3159 3161 3162 3163 3163 3163 3163 3162 3162 3163 3165 3168 3172 3174 3177
3140 3142 3144 3141 3141 3144 3147 3148 3150 3151 3153 3155 3155 3155 3157 3158 3158 3157 3156 3155 3152 3151 3149 3146 3144 3145 3148 3150 3153 3156 3157 3158 3158 3159 3159 3158 3157 3157 3160 3163 3167 3171 3173 3177
3137 3139 3141 3138 3140 3142 3140 3141 3145 3147 3149 3150 3151 3152 3153 3154 3153 3152 3151 3150 3147 3146 3145 3143 3141 3141 3143 3147 3149 3152 3153 3154 3154 3156 3156 3155 3154 3155 3157 3161 3165 3169 3172 3174
3134 3137 3137 3138 3136 3136 3137 3137 3141 3143 3145 3143 3144 3148 3149 3149 3147 3148 3147 3144 3141 3141 3141 3139 3138 3137 3139 3142 3145 3148 3150 3152 3152 3153 3153 3154 3153 3155 3157 3161 3165 3168 3170 3172
3130 3132 3135 3134 3135 3132 3134 3134 3136 3137 3140 3138 3139 3139 3140 3142 3145 3145 3140 3138 3136 3135 3135 3135 3133 3134 3135 3137 3140 3144 3146 3149 3151 3151 3152 3153 3155 3156 3158 3161 3165 3167 3168 3171
3127 3128 3130 3131 3132 3132 3130 3132 3133 3136 3138 3133 3134 3136 3137 3139 3139 3138 3135 3132 3130 3131 3131 3130 3129 3130 3131 3133 3137 3141 3143 3146 3149 3150 3151 3153 3154 3156 3158 3160 3163 3166 3168 3170
3124 3125 3125 3127 3127 3128 3127 3129 3133 3131 3129 3129 3130 3131 3133 3134 3134 3133 3130 3128 3127 3127 3127 3126 3126 3127 3129 3132 3135 3139 3141 3144 3145 3148 3149 3152 3155 3156 3158 3160 3162 3165 3167 3168
3123 3122 3123 3125 3124 3124 3124 3125 3126 3127 3127 3126 3126 3127 3128 3129 3129 3129 3127 3125 3123 3123 3124 3124 3125 3125 3127 3130 3133 3137 3139 3141 3143 3145 3147 3150 3153 3154 3156 3158 3160 3162 3165 3166
3116 3118 3121 3124 3121 3121 3122 3121 3122 3122 3122 3122 3122 3122 3123 3124 3125 3125 3123 3121 3119 3120 3120 3121 3122 3124 3126 3129 3131 3134 3136 3139 3141 3143 3144 3147 3149 3151 3153 3155 3157 3158 3160 3162
3113 3115 3115 3119 3117 3118 3118 3116 3117 3117 3117 3118 3117 3117 3118 3119 3119 3119 3119 3118 3116 3116 3116 3117 3117 3120 3123 3125 3128 3130 3133 3135 3137 3140 3140 3143 3145 3147 3149 3151 3153 3155 3156 3158
3110 3110 3115 3114 3111 3114 3112 3112 3112 3111 3112 3112 3112 3112 3112 3112 3113 3113 3113 3112 3112 3112 3112 3112 3112 3114 3117 3120 3124 3126 3128 3131 3134 3136 3137 3139 3141 3142 3144 3146 3148 3150 3153 3155